Simultaneous Nadir Overpasses (SNOs) Predictions

Prediction of SNOs between AQUA and GOES-15 Satellite Orbit:

Table of predicted SNOs for the next 14.0 days since TLE Epoch: 3/11/2023
Index Date Time (AQUA) AQUA Lat,Lon GOES-15 Lat,Lon Distance(km) Time Diff (sec)
1 03/11/2023 10:28:12 0.74,-130.51 0.12,-127.74 315.74 80
2 03/13/2023 10:14:39 0.05,-127.21 0.13,-127.68 52.90 80
3 03/15/2023 10:01:05 -0.65,-123.90 0.13,-127.60 421.14 80
4 03/15/2023 22:22:08 -0.43,-129.00 -0.14,-127.61 157.56 80
5 03/17/2023 22:08:32 0.26,-125.68 -0.14,-127.53 210.75 80
6 03/18/2023 10:29:25 0.83,-130.74 0.14,-127.48 370.53 80
7 03/20/2023 10:15:47 0.16,-127.41 0.15,-127.40 2.41 80
8 03/22/2023 10:02:08 -0.52,-124.08 0.15,-127.32 367.93 80
9 03/22/2023 22:23:10 -0.53,-129.18 -0.14,-127.33 210.06 80
10 03/24/2023 22:09:29 0.14,-125.84 -0.14,-127.24 159.77 80
